HIMAWARI-8 (40267 NORAD) Tracking and Keplerian Element Data

This shows tracking and keplerian element data for the satellite.

Feedback or suggestion? Click here.




ElementValue
Catalog40267
NameHIMAWARI-8
Epoch Orbit2545
Epoch Day268.71486715
Epoch Year2021
RAAN234.158
Inclination0.0136
Eccentricity0.0001225
Argument of Perigee347.4342
Mean Anonmoly181.1621
Mean Motion1.00273997
Decay Rate-2.78E-06
L11 40267U 14060A 21268.71486715 -.00000278 00000-0 00000-0 0 9996
L22 40267 0.0136 234.1580 0001225 347.4342 181.1621 1.00273997 25455

Live tracking and technical data element details for HIMAWARI-8 (NORAD 40267). HIMAWARI-8 can be tracked NOW for your location showing map with azimuth and elevation plus other details from your city location.

Track the satellite on the map from your city or location and see movement details for azimuth, elevation, latitude, longitude, range, height, and movement on the map or in text.







IsCatalogInMostPopularTable: catalog: 40267, numindb: 527
Update: records affected: 1



GetName: 40267 HIMAWARI-8

Hit Count: updated at: Sun, 26 Sep 2021 23:58:42 GMT